^^

..:: Storico WU ::..




Lo storico viene creato da WUnderground con i dati che la stazione Meteomincio invia al loro server. L' aggiornamento viene fatto ogni 5 minuti circa, tuttavia possono esserci intervalli pił ampi a causa di errori, interruzioni di servizio o problemi nell' invio tramite FTP.


Storico stazione MeteoMincio
Giorno Sommario per Giugno 15, 2022 Unità:  Entrambi    Inglese   Metrico
Giorno Settimana Mese Anno
  Max: Min: Media:
Temperatura: 89.6 °F /  32.0 °C 68 °F /  20.0 °C 78.8 °F /  26 °C
Dew Point: 71.6 °F /  22.0 °C 59 °F /  15.0 °C 64.9 °F /  18.3 °C
Umidità: 78% 49% 64%
Velocità vento: 8.1mph /  13km/h - 4.2mph /  6.8km/h
Raffica: 16.2mph /  26km/h - -
Direzione- - East
Pressione: 30.1 in /  1017.9 hPa 30 in /  1014.6 hPa -
Precipitazioni: 0 in /  0.00 mm    
 
 
Tabulato Dati per Giugno 15, 2022
Ora Temperatura Dew Point Pressione Direzione Velocità vento Raffica Umidità Intensità pioggia (oraria) Info solare Situazione
00:04 73.4 °F /  23.0 °C 62.6 °F /  17.0 °C 30in /  1016.9hPa ENE 5mph /  8km/h 6.8mph /  11km/h 69% 0in /  0.00mm 0.00 W/m2 unknown
00:09 71.6 °F /  22.0 °C 62.6 °F /  17.0 °C 30in /  1017.0hPa NE 3.7mph /  6km/h 5mph /  8km/h 70% 0in /  0.00mm 0.00 W/m2 unknown
00:14 71.6 °F /  22.0 °C 62.6 °F /  17.0 °C 30in /  1017.1hPa NE 3.1mph /  5km/h 5mph /  8km/h 70% 0in /  0.00mm 0.00 W/m2 unknown
00:19 71.6 °F /  22.0 °C 62.6 °F /  17.0 °C 30in /  1017.1hPa NE 3.1mph /  5km/h 5mph /  8km/h 71% 0in /  0.00mm 0.00 W/m2 unknown
00:24 71.6 °F /  22.0 °C 62.6 °F /  17.0 °C 30in /  1017.1hPa NE 3.1mph /  5km/h 3.7mph /  6km/h 71% 0in /  0.00mm 0.00 W/m2 unknown
00:29 71.6 °F /  22.0 °C 60.8 °F /  16.0 °C 30in /  1017.1hPa NE 3.1mph /  5km/h 3.7mph /  6km/h 72% 0in /  0.00mm 0.00 W/m2 unknown
00:34 71.6 °F /  22.0 °C 60.8 °F /  16.0 °C 30in /  1017.1hPa ENE 3.1mph /  5km/h 5mph /  8km/h 72% 0in /  0.00mm 0.00 W/m2 unknown
00:39 71.6 °F /  22.0 °C 62.6 °F /  17.0 °C 30in /  1017.1hPa ENE 3.7mph /  6km/h 6.8mph /  11km/h 73% 0in /  0.00mm 0.00 W/m2 unknown
00:44 71.6 °F /  22.0 °C 62.6 °F /  17.0 °C 30in /  1017.1hPa ENE 5mph /  8km/h 6.8mph /  11km/h 73% 0in /  0.00mm 0.00 W/m2 unknown
00:49 69.8 °F /  21.0 °C 60.8 °F /  16.0 °C 30in /  1017.1hPa ENE 5mph /  8km/h 6.8mph /  11km/h 73% 0in /  0.00mm 0.00 W/m2 unknown
00:54 69.8 °F /  21.0 °C 60.8 °F /  16.0 °C 30in /  1017.1hPa ENE 5mph /  8km/h 6.8mph /  11km/h 73% 0in /  0.00mm 0.00 W/m2 unknown
00:59 69.8 °F /  21.0 °C 60.8 °F /  16.0 °C 30in /  1017.1hPa ENE 3.7mph /  6km/h 5mph /  8km/h 74% 0in /  0.00mm 0.00 W/m2 unknown
01:04 69.8 °F /  21.0 °C 60.8 °F /  16.0 °C 30in /  1017.1hPa ENE 3.1mph /  5km/h 5mph /  8km/h 74% 0in /  0.00mm 0.00 W/m2 unknown
01:09 69.8 °F /  21.0 °C 60.8 °F /  16.0 °C 30in /  1017.1hPa NE 3.1mph /  5km/h 3.7mph /  6km/h 74% 0in /  0.00mm 0.00 W/m2 unknown
01:14 69.8 °F /  21.0 °C 60.8 °F /  16.0 °C 30in /  1017.1hPa NE 3.1mph /  5km/h 5mph /  8km/h 74% 0in /  0.00mm 0.00 W/m2 unknown
01:19 69.8 °F /  21.0 °C 60.8 °F /  16.0 °C 30in /  1017.1hPa NE 4.3mph /  7km/h 5mph /  8km/h 74% 0in /  0.00mm 0.00 W/m2 unknown
01:24 69.8 °F /  21.0 °C 60.8 °F /  16.0 °C 30in /  1017.1hPa NE 3.7mph /  6km/h 5mph /  8km/h 74% 0in /  0.00mm 0.00 W/m2 unknown
01:29 69.8 °F /  21.0 °C 60.8 °F /  16.0 °C 30in /  1017.1hPa NE 3.1mph /  5km/h 5mph /  8km/h 74% 0in /  0.00mm 0.00 W/m2 unknown
01:34 69.8 °F /  21.0 °C 60.8 °F /  16.0 °C 30in /  1017.1hPa NE 3.7mph /  6km/h 6.2mph /  10km/h 74% 0in /  0.00mm 0.00 W/m2 unknown
01:39 69.8 °F /  21.0 °C 60.8 °F /  16.0 °C 30in /  1017.1hPa NE 3.7mph /  6km/h 6.2mph /  10km/h 75% 0in /  0.00mm 0.00 W/m2 unknown
01:44 69.8 °F /  21.0 °C 60.8 °F /  16.0 °C 30in /  1017.1hPa NE 3.7mph /  6km/h 6.2mph /  10km/h 75% 0in /  0.00mm 0.00 W/m2 unknown
01:49 69.8 °F /  21.0 °C 60.8 °F /  16.0 °C 30in /  1017.1hPa NE 3.7mph /  6km/h 6.2mph /  10km/h 75% 0in /  0.00mm 0.00 W/m2 unknown
01:54 69.8 °F /  21.0 °C 60.8 °F /  16.0 °C 30in /  1017.1hPa NE 3.1mph /  5km/h 5mph /  8km/h 75% 0in /  0.00mm 0.00 W/m2 unknown
01:59 69.8 °F /  21.0 °C 60.8 °F /  16.0 °C 30in /  1017.1hPa ENE 3.1mph /  5km/h 3.7mph /  6km/h 75% 0in /  0.00mm 0.00 W/m2 unknown
02:04 69.8 °F /  21.0 °C 60.8 °F /  16.0 °C 30in /  1017.1hPa NE 3.1mph /  5km/h 3.7mph /  6km/h 76% 0in /  0.00mm 0.00 W/m2 unknown
02:09 69.8 °F /  21.0 °C 60.8 °F /  16.0 °C 30in /  1017.2hPa NE 1.9mph /  3km/h 3.7mph /  6km/h 76% 0in /  0.00mm 0.00 W/m2 unknown
02:14 69.8 °F /  21.0 °C 60.8 °F /  16.0 °C 30in /  1017.2hPa NE 1.2mph /  2km/h 3.7mph /  6km/h 76% 0in /  0.00mm 0.00 W/m2 unknown
02:19 69.8 °F /  21.0 °C 60.8 °F /  16.0 °C 30in /  1017.2hPa NE 2.5mph /  4km/h 3.7mph /  6km/h 76% 0in /  0.00mm 0.00 W/m2 unknown
02:24 69.8 °F /  21.0 °C 60.8 °F /  16.0 °C 30in /  1017.2hPa ENE 2.5mph /  4km/h 3.7mph /  6km/h 76% 0in /  0.00mm 0.00 W/m2 unknown
02:29 69.8 °F /  21.0 °C 60.8 °F /  16.0 °C 30in /  1017.2hPa NE 2.5mph /  4km/h 3.7mph /  6km/h 76% 0in /  0.00mm 0.00 W/m2 unknown
02:34 68 °F /  20.0 °C 60.8 °F /  16.0 °C 30in /  1017.2hPa ENE 2.5mph /  4km/h 3.7mph /  6km/h 77% 0in /  0.00mm 0.00 W/m2 unknown
02:39 68 °F /  20.0 °C 60.8 °F /  16.0 °C 30in /  1017.1hPa NE 2.5mph /  4km/h 3.7mph /  6km/h 77% 0in /  0.00mm 0.00 W/m2 unknown
02:44 68 °F /  20.0 °C 60.8 °F /  16.0 °C 30in /  1017.1hPa NE 2.5mph /  4km/h 3.7mph /  6km/h 77% 0in /  0.00mm 0.00 W/m2 unknown
02:49 68 °F /  20.0 °C 60.8 °F /  16.0 °C 30in /  1017.1hPa NE 2.5mph /  4km/h 3.7mph /  6km/h 77% 0in /  0.00mm 0.00 W/m2 unknown
02:54 68 °F /  20.0 °C 60.8 °F /  16.0 °C 30in /  1017.1hPa NE 3.1mph /  5km/h 3.7mph /  6km/h 76% 0in /  0.00mm 0.00 W/m2 unknown
02:59 68 °F /  20.0 °C 60.8 °F /  16.0 °C 30in /  1017.1hPa NE 3.1mph /  5km/h 3.7mph /  6km/h 76% 0in /  0.00mm 0.00 W/m2 unknown
03:04 69.8 °F /  21.0 °C 60.8 °F /  16.0 °C 30in /  1017.2hPa NE 2.5mph /  4km/h 3.7mph /  6km/h 76% 0in /  0.00mm 0.00 W/m2 unknown
03:09 69.8 °F /  21.0 °C 60.8 °F /  16.0 °C 30in /  1017.2hPa NE 3.1mph /  5km/h 3.7mph /  6km/h 75% 0in /  0.00mm 0.00 W/m2 unknown
03:14 69.8 °F /  21.0 °C 60.8 °F /  16.0 °C 30in /  1017.2hPa ENE 3.7mph /  6km/h 5mph /  8km/h 75% 0in /  0.00mm 0.00 W/m2 unknown
03:19 69.8 °F /  21.0 °C 60.8 °F /  16.0 °C 30in /  1017.1hPa ENE 3.7mph /  6km/h 5mph /  8km/h 74% 0in /  0.00mm 0.00 W/m2 unknown
03:24 69.8 °F /  21.0 °C 60.8 °F /  16.0 °C 30in /  1017.2hPa ENE 3.1mph /  5km/h 5mph /  8km/h 73% 0in /  0.00mm 0.00 W/m2 unknown
03:29 69.8 °F /  21.0 °C 60.8 °F /  16.0 °C 30in /  1017.2hPa ENE 3.1mph /  5km/h 5mph /  8km/h 73% 0in /  0.00mm 0.00 W/m2 unknown
03:34 69.8 °F /  21.0 °C 60.8 °F /  16.0 °C 30in /  1017.2hPa ENE 3.1mph /  5km/h 5mph /  8km/h 73% 0in /  0.00mm 0.00 W/m2 unknown
03:39 69.8 °F /  21.0 °C 60.8 °F /  16.0 °C 30in /  1017.1hPa ENE 3.1mph /  5km/h 5mph /  8km/h 73% 0in /  0.00mm 0.00 W/m2 unknown
03:44 69.8 °F /  21.0 °C 60.8 °F /  16.0 °C 30in /  1017.1hPa ENE 3.1mph /  5km/h 5mph /  8km/h 73% 0in /  0.00mm 0.00 W/m2 unknown
03:49 68 °F /  20.0 °C 59 °F /  15.0 °C 30in /  1017.1hPa ENE 3.1mph /  5km/h 5mph /  8km/h 73% 0in /  0.00mm 0.00 W/m2 unknown
03:54 68 °F /  20.0 °C 59 °F /  15.0 °C 30in /  1017.1hPa ENE 3.7mph /  6km/h 5mph /  8km/h 73% 0in /  0.00mm 0.00 W/m2 unknown
03:59 68 °F /  20.0 °C 59 °F /  15.0 °C 30in /  1017.0hPa ENE 3.7mph /  6km/h 5mph /  8km/h 73% 0in /  0.00mm 0.00 W/m2 unknown
04:03 69.8 °F /  21.0 °C 59 °F /  15.0 °C 30in /  1017.0hPa NE 3.1mph /  5km/h 3.7mph /  6km/h 72% 0in /  0.00mm 0.00 W/m2 unknown
04:08 69.8 °F /  21.0 °C 59 °F /  15.0 °C 30in /  1017.1hPa NE 3.1mph /  5km/h 3.7mph /  6km/h 72% 0in /  0.00mm 0.00 W/m2 unknown
04:13 69.8 °F /  21.0 °C 59 °F /  15.0 °C 30in /  1017.1hPa ENE 3.1mph /  5km/h 3.7mph /  6km/h 71% 0in /  0.00mm 0.00 W/m2 unknown
04:19 69.8 °F /  21.0 °C 59 °F /  15.0 °C 30in /  1017.1hPa NE 3.1mph /  5km/h 3.7mph /  6km/h 70% 0in /  0.00mm 0.00 W/m2 unknown
04:24 69.8 °F /  21.0 °C 59 °F /  15.0 °C 30in /  1017.1hPa NE 3.1mph /  5km/h 3.7mph /  6km/h 70% 0in /  0.00mm 0.00 W/m2 unknown
04:28 69.8 °F /  21.0 °C 59 °F /  15.0 °C 30in /  1017.2hPa NE 3.1mph /  5km/h 3.7mph /  6km/h 70% 0in /  0.00mm 0.00 W/m2 unknown
04:34 69.8 °F /  21.0 °C 59 °F /  15.0 °C 30in /  1017.2hPa ENE 3.7mph /  6km/h 3.7mph /  6km/h 69% 0in /  0.00mm 0.00 W/m2 unknown
04:38 69.8 °F /  21.0 °C 59 °F /  15.0 °C 30in /  1017.1hPa ENE 3.1mph /  5km/h 3.7mph /  6km/h 69% 0in /  0.00mm 0.00 W/m2 unknown
04:44 69.8 °F /  21.0 °C 59 °F /  15.0 °C 30in /  1017.1hPa ENE 3.7mph /  6km/h 5mph /  8km/h 70% 0in /  0.00mm 0.00 W/m2 unknown
04:48 69.8 °F /  21.0 °C 59 °F /  15.0 °C 30in /  1017.1hPa ENE 3.7mph /  6km/h 5mph /  8km/h 70% 0in /  0.00mm 0.00 W/m2 unknown
04:53 69.8 °F /  21.0 °C 59 °F /  15.0 °C 30in /  1017.1hPa NE 3.7mph /  6km/h 5mph /  8km/h 70% 0in /  0.00mm 0.00 W/m2 unknown
04:58 69.8 °F /  21.0 °C 59 °F /  15.0 °C 30in /  1017.0hPa ENE 3.7mph /  6km/h 5mph /  8km/h 71% 0in /  0.00mm 0.00 W/m2 unknown
05:03 69.8 °F /  21.0 °C 59 °F /  15.0 °C 30in /  1017.1hPa ENE 3.7mph /  6km/h 5mph /  8km/h 71% 0in /  0.00mm 0.00 W/m2 unknown
05:08 68 °F /  20.0 °C 59 °F /  15.0 °C 30in /  1017.0hPa ENE 3.1mph /  5km/h 5mph /  8km/h 71% 0in /  0.00mm 0.00 W/m2 unknown
05:14 68 °F /  20.0 °C 59 °F /  15.0 °C 30in /  1017.0hPa ENE 3.1mph /  5km/h 3.7mph /  6km/h 72% 0in /  0.00mm 0.00 W/m2 unknown
05:19 68 °F /  20.0 °C 59 °F /  15.0 °C 30in /  1017.1hPa ENE 3.1mph /  5km/h 3.7mph /  6km/h 73% 0in /  0.00mm 0.00 W/m2 unknown
05:24 68 °F /  20.0 °C 59 °F /  15.0 °C 30in /  1017.1hPa ENE 3.7mph /  6km/h 5mph /  8km/h 74% 0in /  0.00mm 0.00 W/m2 unknown
05:29 68 °F /  20.0 °C 59 °F /  15.0 °C 30in /  1017.1hPa ENE 3.7mph /  6km/h 5mph /  8km/h 74% 0in /  0.00mm 0.00 W/m2 unknown
05:34 68 °F /  20.0 °C 59 °F /  15.0 °C 30in /  1017.2hPa ENE 3.7mph /  6km/h 5mph /  8km/h 74% 0in /  0.00mm 0.00 W/m2 unknown
05:38 68 °F /  20.0 °C 59 °F /  15.0 °C 30in /  1017.2hPa ENE 3.7mph /  6km/h 5mph /  8km/h 74% 0in /  0.00mm 5.00 W/m2 unknown
05:44 68 °F /  20.0 °C 60.8 °F /  16.0 °C 30in /  1017.2hPa ENE 4.3mph /  7km/h 6.8mph /  11km/h 75% 0in /  0.00mm 7.00 W/m2 unknown
05:49 68 °F /  20.0 °C 60.8 °F /  16.0 °C 30in /  1017.2hPa ENE 4.3mph /  7km/h 6.8mph /  11km/h 75% 0in /  0.00mm 7.00 W/m2 unknown
05:54 68 °F /  20.0 °C 60.8 °F /  16.0 °C 30in /  1017.2hPa ENE 5mph /  8km/h 6.8mph /  11km/h 75% 0in /  0.00mm 11.00 W/m2 unknown
05:59 68 °F /  20.0 °C 60.8 °F /  16.0 °C 30in /  1017.2hPa ENE 3.7mph /  6km/h 6.8mph /  11km/h 75% 0in /  0.00mm 16.00 W/m2 unknown
06:04 68 °F /  20.0 °C 60.8 °F /  16.0 °C 30in /  1017.2hPa ENE 3.7mph /  6km/h 5mph /  8km/h 75% 0in /  0.00mm 16.00 W/m2 unknown
06:09 68 °F /  20.0 °C 60.8 °F /  16.0 °C 30in /  1017.4hPa ENE 3.7mph /  6km/h 5mph /  8km/h 76% 0in /  0.00mm 26.00 W/m2 unknown
06:14 68 °F /  20.0 °C 60.8 °F /  16.0 °C 30in /  1017.4hPa ENE 3.1mph /  5km/h 5mph /  8km/h 76% 0in /  0.00mm 32.00 W/m2 unknown
06:19 68 °F /  20.0 °C 60.8 °F /  16.0 °C 30in /  1017.4hPa ENE 3.1mph /  5km/h 3.7mph /  6km/h 76% 0in /  0.00mm 33.00 W/m2 unknown
06:24 68 °F /  20.0 °C 60.8 °F /  16.0 °C 30in /  1017.4hPa East 1.9mph /  3km/h 3.7mph /  6km/h 76% 0in /  0.00mm 37.00 W/m2 unknown
06:29 68 °F /  20.0 °C 60.8 °F /  16.0 °C 30in /  1017.4hPa ENE 3.7mph /  6km/h 5mph /  8km/h 76% 0in /  0.00mm 46.00 W/m2 unknown
06:34 68 °F /  20.0 °C 60.8 °F /  16.0 °C 30in /  1017.4hPa NE 4.3mph /  7km/h 6.2mph /  10km/h 76% 0in /  0.00mm 49.00 W/m2 unknown
06:39 68 °F /  20.0 °C 60.8 °F /  16.0 °C 30in /  1017.4hPa NE 5mph /  8km/h 6.2mph /  10km/h 76% 0in /  0.00mm 53.00 W/m2 unknown
06:44 69.8 °F /  21.0 °C 60.8 °F /  16.0 °C 30in /  1017.4hPa NE 5mph /  8km/h 6.8mph /  11km/h 76% 0in /  0.00mm 67.00 W/m2 unknown
06:49 69.8 °F /  21.0 °C 60.8 °F /  16.0 °C 30in /  1017.4hPa ENE 5mph /  8km/h 6.8mph /  11km/h 77% 0in /  0.00mm 69.00 W/m2 unknown
06:54 69.8 °F /  21.0 °C 60.8 °F /  16.0 °C 30in /  1017.4hPa ENE 3.7mph /  6km/h 5mph /  8km/h 77% 0in /  0.00mm 69.00 W/m2 unknown
06:59 69.8 °F /  21.0 °C 60.8 °F /  16.0 °C 30in /  1017.4hPa ENE 4.3mph /  7km/h 6.8mph /  11km/h 77% 0in /  0.00mm 63.00 W/m2 unknown
07:04 69.8 °F /  21.0 °C 62.6 °F /  17.0 °C 30.1in /  1017.5hPa NE 5mph /  8km/h 6.8mph /  11km/h 78% 0in /  0.00mm 107.00 W/m2 unknown
07:09 69.8 °F /  21.0 °C 62.6 °F /  17.0 °C 30.1in /  1017.5hPa ENE 5mph /  8km/h 6.8mph /  11km/h 78% 0in /  0.00mm 125.00 W/m2 unknown
07:14 69.8 °F /  21.0 °C 62.6 °F /  17.0 °C 30.1in /  1017.5hPa ENE 2.5mph /  4km/h 4.3mph /  7km/h 77% 0in /  0.00mm 134.00 W/m2 unknown
07:18 69.8 °F /  21.0 °C 62.6 °F /  17.0 °C 30.1in /  1017.6hPa ENE 3.1mph /  5km/h 5mph /  8km/h 77% 0in /  0.00mm 137.00 W/m2 unknown
07:24 69.8 °F /  21.0 °C 62.6 °F /  17.0 °C 30.1in /  1017.6hPa ENE 5mph /  8km/h 6.8mph /  11km/h 76% 0in /  0.00mm 158.00 W/m2 unknown
07:29 69.8 °F /  21.0 °C 62.6 °F /  17.0 °C 30.1in /  1017.6hPa NE 5mph /  8km/h 6.8mph /  11km/h 76% 0in /  0.00mm 171.00 W/m2 unknown
07:34 71.6 °F /  22.0 °C 62.6 °F /  17.0 °C 30.1in /  1017.6hPa ENE 5mph /  8km/h 6.8mph /  11km/h 76% 0in /  0.00mm 179.00 W/m2 unknown
07:39 71.6 °F /  22.0 °C 62.6 °F /  17.0 °C 30.1in /  1017.6hPa ENE 3.1mph /  5km/h 6.8mph /  11km/h 75% 0in /  0.00mm 192.00 W/m2 unknown
07:44 71.6 °F /  22.0 °C 62.6 °F /  17.0 °C 30.1in /  1017.7hPa ENE 5mph /  8km/h 6.8mph /  11km/h 75% 0in /  0.00mm 207.00 W/m2 unknown
07:47 71.6 °F /  22.0 °C 62.6 °F /  17.0 °C 30.1in /  1017.8hPa ENE 5.6mph /  9km/h 6.8mph /  11km/h 74% 0in /  0.00mm 218.00 W/m2 unknown
07:54 71.6 °F /  22.0 °C 62.6 °F /  17.0 °C 30.1in /  1017.9hPa ENE 5.6mph /  9km/h 8.1mph /  13km/h 73% 0in /  0.00mm 239.00 W/m2 unknown
07:59 73.4 °F /  23.0 °C 62.6 °F /  17.0 °C 30.1in /  1017.8hPa East 6.2mph /  10km/h 8.1mph /  13km/h 73% 0in /  0.00mm 250.00 W/m2 unknown
08:04 73.4 °F /  23.0 °C 64.4 °F /  18.0 °C 30.1in /  1017.9hPa ENE 5mph /  8km/h 6.8mph /  11km/h 72% 0in /  0.00mm 267.00 W/m2 unknown
08:09 73.4 °F /  23.0 °C 64.4 °F /  18.0 °C 30.1in /  1017.9hPa ENE 4.3mph /  7km/h 6.2mph /  10km/h 72% 0in /  0.00mm 283.00 W/m2 unknown
08:14 73.4 °F /  23.0 °C 64.4 °F /  18.0 °C 30.1in /  1017.9hPa ENE 5mph /  8km/h 6.8mph /  11km/h 71% 0in /  0.00mm 295.00 W/m2 unknown
08:19 73.4 °F /  23.0 °C 64.4 °F /  18.0 °C 30.1in /  1017.9hPa East 5mph /  8km/h 8.1mph /  13km/h 70% 0in /  0.00mm 308.00 W/m2 unknown
08:24 73.4 °F /  23.0 °C 64.4 °F /  18.0 °C 30.1in /  1017.8hPa East 5.6mph /  9km/h 8.1mph /  13km/h 71% 0in /  0.00mm 318.00 W/m2 unknown
08:29 75.2 °F /  24.0 °C 64.4 °F /  18.0 °C 30.1in /  1017.8hPa East 5mph /  8km/h 8.1mph /  13km/h 70% 0in /  0.00mm 334.00 W/m2 unknown
08:34 75.2 °F /  24.0 °C 64.4 °F /  18.0 °C 30.1in /  1017.8hPa ESE 5mph /  8km/h 8.1mph /  13km/h 70% 0in /  0.00mm 345.00 W/m2 unknown
08:39 75.2 °F /  24.0 °C 64.4 °F /  18.0 °C 30.1in /  1017.8hPa East 6.2mph /  10km/h 9.3mph /  15km/h 70% 0in /  0.00mm 359.00 W/m2 unknown
08:44 75.2 °F /  24.0 °C 64.4 °F /  18.0 °C 30.1in /  1017.8hPa ESE 6.2mph /  10km/h 9.3mph /  15km/h 69% 0in /  0.00mm 373.00 W/m2 unknown
08:49 75.2 °F /  24.0 °C 64.4 °F /  18.0 °C 30.1in /  1017.8hPa ESE 6.2mph /  10km/h 9.3mph /  15km/h 69% 0in /  0.00mm 385.00 W/m2 unknown
08:54 75.2 °F /  24.0 °C 64.4 °F /  18.0 °C 30.1in /  1017.8hPa ESE 6.2mph /  10km/h 10.6mph /  17km/h 68% 0in /  0.00mm 394.00 W/m2 unknown
08:59 75.2 °F /  24.0 °C 64.4 °F /  18.0 °C 30.1in /  1017.7hPa East 8.1mph /  13km/h 10.6mph /  17km/h 68% 0in /  0.00mm 410.00 W/m2 unknown
09:04 77 °F /  25.0 °C 64.4 °F /  18.0 °C 30.1in /  1017.7hPa ESE 8.1mph /  13km/h 10.6mph /  17km/h 67% 0in /  0.00mm 420.00 W/m2 unknown
09:09 77 °F /  25.0 °C 64.4 °F /  18.0 °C 30.1in /  1017.7hPa East 7.5mph /  12km/h 9.3mph /  15km/h 67% 0in /  0.00mm 438.00 W/m2 unknown
09:14 77 °F /  25.0 °C 64.4 °F /  18.0 °C 30.1in /  1017.6hPa East 6.8mph /  11km/h 9.3mph /  15km/h 66% 0in /  0.00mm 452.00 W/m2 unknown
09:19 77 °F /  25.0 °C 64.4 °F /  18.0 °C 30.1in /  1017.6hPa East 6.8mph /  11km/h 9.3mph /  15km/h 67% 0in /  0.00mm 464.00 W/m2 unknown
09:24 77 °F /  25.0 °C 64.4 °F /  18.0 °C 30.1in /  1017.6hPa East 6.8mph /  11km/h 9.3mph /  15km/h 66% 0in /  0.00mm 475.00 W/m2 unknown
09:29 77 °F /  25.0 °C 66.2 °F /  19.0 °C 30.1in /  1017.6hPa ESE 6.2mph /  10km/h 9.3mph /  15km/h 67% 0in /  0.00mm 494.00 W/m2 unknown
09:34 78.8 °F /  26.0 °C 64.4 °F /  18.0 °C 30.1in /  1017.7hPa ESE 5mph /  8km/h 8.1mph /  13km/h 66% 0in /  0.00mm 503.00 W/m2 unknown
09:39 78.8 °F /  26.0 °C 64.4 °F /  18.0 °C 30.1in /  1017.7hPa East 5mph /  8km/h 8.7mph /  14km/h 65% 0in /  0.00mm 515.00 W/m2 unknown
09:44 78.8 °F /  26.0 °C 66.2 °F /  19.0 °C 30.1in /  1017.8hPa ESE 6.8mph /  11km/h 9.3mph /  15km/h 65% 0in /  0.00mm 529.00 W/m2 unknown
09:49 78.8 °F /  26.0 °C 64.4 °F /  18.0 °C 30.1in /  1017.8hPa ESE 7.5mph /  12km/h 9.3mph /  15km/h 64% 0in /  0.00mm 541.00 W/m2 unknown
09:54 78.8 °F /  26.0 °C 64.4 °F /  18.0 °C 30.1in /  1017.8hPa ESE 7.5mph /  12km/h 9.3mph /  15km/h 62% 0in /  0.00mm 554.00 W/m2 unknown
09:59 78.8 °F /  26.0 °C 64.4 °F /  18.0 °C 30.1in /  1017.8hPa East 7.5mph /  12km/h 9.9mph /  16km/h 63% 0in /  0.00mm 566.00 W/m2 unknown
10:04 78.8 °F /  26.0 °C 66.2 °F /  19.0 °C 30.1in /  1017.8hPa ESE 7.5mph /  12km/h 10.6mph /  17km/h 64% 0in /  0.00mm 578.00 W/m2 unknown
10:09 80.6 °F /  27.0 °C 66.2 °F /  19.0 °C 30.1in /  1017.8hPa ESE 6.2mph /  10km/h 9.9mph /  16km/h 64% 0in /  0.00mm 592.00 W/m2 unknown
10:14 80.6 °F /  27.0 °C 66.2 °F /  19.0 °C 30.1in /  1017.8hPa East 5.6mph /  9km/h 8.7mph /  14km/h 63% 0in /  0.00mm 603.00 W/m2 unknown
10:19 80.6 °F /  27.0 °C 68 °F /  20.0 °C 30.1in /  1017.7hPa East 5mph /  8km/h 8.1mph /  13km/h 65% 0in /  0.00mm 610.00 W/m2 unknown
10:24 80.6 °F /  27.0 °C 66.2 °F /  19.0 °C 30.1in /  1017.7hPa ENE 5mph /  8km/h 8.1mph /  13km/h 63% 0in /  0.00mm 622.00 W/m2 unknown
10:29 80.6 °F /  27.0 °C 66.2 °F /  19.0 °C 30.1in /  1017.8hPa ESE 5mph /  8km/h 9.3mph /  15km/h 63% 0in /  0.00mm 631.00 W/m2 unknown
10:34 80.6 °F /  27.0 °C 66.2 °F /  19.0 °C 30.1in /  1017.7hPa ESE 5mph /  8km/h 9.3mph /  15km/h 63% 0in /  0.00mm 643.00 W/m2 unknown
10:39 80.6 °F /  27.0 °C 66.2 °F /  19.0 °C 30.1in /  1017.7hPa East 5mph /  8km/h 13mph /  21km/h 63% 0in /  0.00mm 652.00 W/m2 unknown
10:44 80.6 °F /  27.0 °C 66.2 °F /  19.0 °C 30.1in /  1017.7hPa ENE 6.8mph /  11km/h 13mph /  21km/h 62% 0in /  0.00mm 666.00 W/m2 unknown
10:49 80.6 °F /  27.0 °C 66.2 °F /  19.0 °C 30.1in /  1017.7hPa East 6.2mph /  10km/h 13mph /  21km/h 62% 0in /  0.00mm 675.00 W/m2 unknown
10:54 80.6 °F /  27.0 °C 66.2 °F /  19.0 °C 30.1in /  1017.6hPa SE 6.2mph /  10km/h 11.8mph /  19km/h 61% 0in /  0.00mm 687.00 W/m2 unknown
10:59 82.4 °F /  28.0 °C 66.2 °F /  19.0 °C 30.1in /  1017.6hPa East 5.6mph /  9km/h 10.6mph /  17km/h 61% 0in /  0.00mm 696.00 W/m2 unknown
11:04 82.4 °F /  28.0 °C 66.2 °F /  19.0 °C 30.1in /  1017.6hPa ENE 8.1mph /  13km/h 10.6mph /  17km/h 61% 0in /  0.00mm 705.00 W/m2 unknown
11:09 80.6 °F /  27.0 °C 66.2 °F /  19.0 °C 30.1in /  1017.6hPa East 8.1mph /  13km/h 10.6mph /  17km/h 59% 0in /  0.00mm 717.00 W/m2 unknown
11:14 82.4 °F /  28.0 °C 66.2 °F /  19.0 °C 30.1in /  1017.6hPa East 6.8mph /  11km/h 9.9mph /  16km/h 60% 0in /  0.00mm 726.00 W/m2 unknown
11:19 82.4 °F /  28.0 °C 66.2 °F /  19.0 °C 30.1in /  1017.6hPa ENE 6.2mph /  10km/h 9.3mph /  15km/h 60% 0in /  0.00mm 731.00 W/m2 unknown
11:24 82.4 °F /  28.0 °C 68 °F /  20.0 °C 30.1in /  1017.6hPa ENE 6.2mph /  10km/h 9.3mph /  15km/h 62% 0in /  0.00mm 738.00 W/m2 unknown
11:29 82.4 °F /  28.0 °C 68 °F /  20.0 °C 30.1in /  1017.6hPa NE 6.2mph /  10km/h 8.7mph /  14km/h 62% 0in /  0.00mm 745.00 W/m2 unknown
11:34 82.4 °F /  28.0 °C 68 °F /  20.0 °C 30.1in /  1017.5hPa East 5mph /  8km/h 8.1mph /  13km/h 61% 0in /  0.00mm 754.00 W/m2 unknown
11:39 82.4 °F /  28.0 °C 66.2 °F /  19.0 °C 30.1in /  1017.6hPa East 5mph /  8km/h 8.1mph /  13km/h 59% 0in /  0.00mm 758.00 W/m2 unknown
11:44 82.4 °F /  28.0 °C 66.2 °F /  19.0 °C 30.1in /  1017.6hPa East 6.2mph /  10km/h 10.6mph /  17km/h 59% 0in /  0.00mm 770.00 W/m2 unknown
11:49 82.4 °F /  28.0 °C 68 °F /  20.0 °C 30.1in /  1017.5hPa East 6.8mph /  11km/h 10.6mph /  17km/h 59% 0in /  0.00mm 779.00 W/m2 unknown
11:54 82.4 °F /  28.0 °C 68 °F /  20.0 °C 30in /  1017.4hPa East 6.8mph /  11km/h 9.9mph /  16km/h 59% 0in /  0.00mm 784.00 W/m2 unknown
11:59 82.4 °F /  28.0 °C 66.2 °F /  19.0 °C 30in /  1017.3hPa East 6.8mph /  11km/h 8.7mph /  14km/h 58% 0in /  0.00mm 793.00 W/m2 unknown
12:04 84.2 °F /  29.0 °C 66.2 °F /  19.0 °C 30in /  1017.3hPa ENE 5mph /  8km/h 6.8mph /  11km/h 57% 0in /  0.00mm 796.00 W/m2 unknown
12:09 84.2 °F /  29.0 °C 66.2 °F /  19.0 °C 30in /  1017.2hPa ENE 6.2mph /  10km/h 11.8mph /  19km/h 57% 0in /  0.00mm 800.00 W/m2 unknown
12:14 84.2 °F /  29.0 °C 68 °F /  20.0 °C 30in /  1017.2hPa ENE 8.1mph /  13km/h 11.8mph /  19km/h 58% 0in /  0.00mm 805.00 W/m2 unknown
12:19 84.2 °F /  29.0 °C 68 °F /  20.0 °C 30in /  1017.2hPa NE 6.8mph /  11km/h 11.8mph /  19km/h 57% 0in /  0.00mm 812.00 W/m2 unknown
12:24 84.2 °F /  29.0 °C 68 °F /  20.0 °C 30in /  1017.2hPa NNE 6.2mph /  10km/h 9.9mph /  16km/h 57% 0in /  0.00mm 816.00 W/m2 unknown
12:28 86 °F /  30.0 °C 68 °F /  20.0 °C 30in /  1017.2hPa NE 5.6mph /  9km/h 9.3mph /  15km/h 56% 0in /  0.00mm 817.00 W/m2 unknown
12:34 86 °F /  30.0 °C 68 °F /  20.0 °C 30in /  1017.2hPa East 5.6mph /  9km/h 9.3mph /  15km/h 55% 0in /  0.00mm 824.00 W/m2 unknown
12:39 84.2 °F /  29.0 °C 68 °F /  20.0 °C 30in /  1017.1hPa East 6.2mph /  10km/h 9.3mph /  15km/h 57% 0in /  0.00mm 830.00 W/m2 unknown
12:44 84.2 °F /  29.0 °C 68 °F /  20.0 °C 30in /  1017.0hPa East 6.2mph /  10km/h 8.7mph /  14km/h 57% 0in /  0.00mm 863.00 W/m2 unknown
12:49 84.2 °F /  29.0 °C 68 °F /  20.0 °C 30in /  1017.0hPa East 5.6mph /  9km/h 8.7mph /  14km/h 56% 0in /  0.00mm 874.00 W/m2 unknown
12:54 86 °F /  30.0 °C 69.8 °F /  21.0 °C 30in /  1016.9hPa ENE 6.2mph /  10km/h 8.7mph /  14km/h 59% 0in /  0.00mm 847.00 W/m2 unknown
12:59 86 °F /  30.0 °C 68 °F /  20.0 °C 30in /  1016.9hPa ENE 5mph /  8km/h 8.1mph /  13km/h 56% 0in /  0.00mm 840.00 W/m2 unknown
13:04 86 °F /  30.0 °C 68 °F /  20.0 °C 30in /  1016.9hPa ENE 3.7mph /  6km/h 6.8mph /  11km/h 56% 0in /  0.00mm 858.00 W/m2 unknown
13:09 86 °F /  30.0 °C 68 °F /  20.0 °C 30in /  1016.8hPa ENE 3.7mph /  6km/h 10.6mph /  17km/h 54% 0in /  0.00mm 893.00 W/m2 unknown
13:14 86 °F /  30.0 °C 66.2 °F /  19.0 °C 30in /  1016.8hPa ENE 5.6mph /  9km/h 11.8mph /  19km/h 53% 0in /  0.00mm 854.00 W/m2 unknown
13:19 86 °F /  30.0 °C 66.2 °F /  19.0 °C 30in /  1016.8hPa East 6.2mph /  10km/h 11.8mph /  19km/h 53% 0in /  0.00mm 854.00 W/m2 unknown
13:24 86 °F /  30.0 °C 68 °F /  20.0 °C 30in /  1016.8hPa NNW 6.2mph /  10km/h 11.8mph /  19km/h 54% 0in /  0.00mm 840.00 W/m2 unknown
13:29 86 °F /  30.0 °C 68 °F /  20.0 °C 30in /  1016.8hPa NE 6.2mph /  10km/h 11.8mph /  19km/h 54% 0in /  0.00mm 837.00 W/m2 unknown
13:34 86 °F /  30.0 °C 68 °F /  20.0 °C 30in /  1016.7hPa ESE 4.3mph /  7km/h 6.8mph /  11km/h 53% 0in /  0.00mm 807.00 W/m2 unknown
13:39 86 °F /  30.0 °C 68 °F /  20.0 °C 30in /  1016.7hPa East 5mph /  8km/h 6.8mph /  11km/h 53% 0in /  0.00mm 809.00 W/m2 unknown
13:44 86 °F /  30.0 °C 68 °F /  20.0 °C 30in /  1016.6hPa SE 5mph /  8km/h 6.8mph /  11km/h 53% 0in /  0.00mm 831.00 W/m2 unknown
13:49 86 °F /  30.0 °C 68 °F /  20.0 °C 30in /  1016.7hPa SE 5mph /  8km/h 6.8mph /  11km/h 53% 0in /  0.00mm 828.00 W/m2 unknown
13:54 86 °F /  30.0 °C 66.2 °F /  19.0 °C 30in /  1016.6hPa ESE 3.7mph /  6km/h 6.2mph /  10km/h 52% 0in /  0.00mm 854.00 W/m2 unknown
13:59 86 °F /  30.0 °C 68 °F /  20.0 °C 30in /  1016.6hPa ESE 3.7mph /  6km/h 6.2mph /  10km/h 54% 0in /  0.00mm 863.00 W/m2 unknown
14:04 87.8 °F /  31.0 °C 69.8 °F /  21.0 °C 30in /  1016.5hPa NE 3.1mph /  5km/h 6.2mph /  10km/h 56% 0in /  0.00mm 863.00 W/m2 unknown
14:09 87.8 °F /  31.0 °C 68 °F /  20.0 °C 30in /  1016.5hPa ENE 1.9mph /  3km/h 6.2mph /  10km/h 53% 0in /  0.00mm 853.00 W/m2 unknown
14:14 87.8 °F /  31.0 °C 69.8 °F /  21.0 °C 30in /  1016.4hPa ENE 4.3mph /  7km/h 8.7mph /  14km/h 57% 0in /  0.00mm 849.00 W/m2 unknown
14:19 87.8 °F /  31.0 °C 68 °F /  20.0 °C 30in /  1016.4hPa East 4.3mph /  7km/h 9.3mph /  15km/h 53% 0in /  0.00mm 838.00 W/m2 unknown
14:24 87.8 °F /  31.0 °C 68 °F /  20.0 °C 30in /  1016.4hPa ENE 3.1mph /  5km/h 9.3mph /  15km/h 54% 0in /  0.00mm 830.00 W/m2 unknown
14:29 87.8 °F /  31.0 °C 68 °F /  20.0 °C 30in /  1016.4hPa ENE 5mph /  8km/h 9.3mph /  15km/h 53% 0in /  0.00mm 826.00 W/m2 unknown
14:34 87.8 °F /  31.0 °C 69.8 °F /  21.0 °C 30in /  1016.4hPa NE 6.2mph /  10km/h 9.3mph /  15km/h 55% 0in /  0.00mm 810.00 W/m2 unknown
14:39 87.8 °F /  31.0 °C 69.8 °F /  21.0 °C 30in /  1016.4hPa NE 5.6mph /  9km/h 9.3mph /  15km/h 55% 0in /  0.00mm 800.00 W/m2 unknown
14:44 87.8 °F /  31.0 °C 68 °F /  20.0 °C 30in /  1016.4hPa East 6.2mph /  10km/h 9.3mph /  15km/h 51% 0in /  0.00mm 777.00 W/m2 unknown
14:49 87.8 °F /  31.0 °C 69.8 °F /  21.0 °C 30in /  1016.4hPa SSE 1.9mph /  3km/h 3.7mph /  6km/h 54% 0in /  0.00mm 777.00 W/m2 unknown
14:54 87.8 °F /  31.0 °C 68 °F /  20.0 °C 30in /  1016.4hPa NNE 1.9mph /  3km/h 3.7mph /  6km/h 53% 0in /  0.00mm 775.00 W/m2 unknown
14:59 89.6 °F /  32.0 °C 68 °F /  20.0 °C 30in /  1016.3hPa ENE 4.3mph /  7km/h 6.8mph /  11km/h 52% 0in /  0.00mm 768.00 W/m2 unknown
15:04 89.6 °F /  32.0 °C 69.8 °F /  21.0 °C 30in /  1016.3hPa NE 6.2mph /  10km/h 9.3mph /  15km/h 53% 0in /  0.00mm 795.00 W/m2 unknown
15:09 89.6 °F /  32.0 °C 68 °F /  20.0 °C 30in /  1016.1hPa East 6.2mph /  10km/h 8.7mph /  14km/h 52% 0in /  0.00mm 786.00 W/m2 unknown
15:14 89.6 °F /  32.0 °C 68 °F /  20.0 °C 30in /  1016.0hPa ESE 6.2mph /  10km/h 8.1mph /  13km/h 51% 0in /  0.00mm 780.00 W/m2 unknown
15:19 89.6 °F /  32.0 °C 69.8 °F /  21.0 °C 30in /  1016.1hPa East 6.2mph /  10km/h 8.1mph /  13km/h 53% 0in /  0.00mm 775.00 W/m2 unknown
15:24 89.6 °F /  32.0 °C 68 °F /  20.0 °C 30in /  1016.1hPa NE 5mph /  8km/h 8.1mph /  13km/h 52% 0in /  0.00mm 765.00 W/m2 unknown
15:29 89.6 °F /  32.0 °C 68 °F /  20.0 °C 30in /  1016.1hPa East 3.7mph /  6km/h 6.8mph /  11km/h 50% 0in /  0.00mm 752.00 W/m2 unknown
15:34 87.8 °F /  31.0 °C 68 °F /  20.0 °C 30in /  1016.0hPa East 4.3mph /  7km/h 6.2mph /  10km/h 52% 0in /  0.00mm 747.00 W/m2 unknown
15:39 89.6 °F /  32.0 °C 68 °F /  20.0 °C 30in /  1015.9hPa ESE 3.7mph /  6km/h 6.2mph /  10km/h 51% 0in /  0.00mm 740.00 W/m2 unknown
15:44 89.6 °F /  32.0 °C 68 °F /  20.0 °C 30in /  1015.8hPa ESE 3.7mph /  6km/h 6.2mph /  10km/h 51% 0in /  0.00mm 735.00 W/m2 unknown
15:49 87.8 °F /  31.0 °C 69.8 °F /  21.0 °C 30in /  1015.7hPa SE 3.1mph /  5km/h 6.2mph /  10km/h 53% 0in /  0.00mm 682.00 W/m2 unknown
15:54 87.8 °F /  31.0 °C 68 °F /  20.0 °C 30in /  1015.5hPa East 3.7mph /  6km/h 5mph /  8km/h 52% 0in /  0.00mm 640.00 W/m2 unknown
15:59 87.8 °F /  31.0 °C 68 °F /  20.0 °C 30in /  1015.4hPa ESE 3.7mph /  6km/h 5mph /  8km/h 53% 0in /  0.00mm 515.00 W/m2 unknown
16:04 87.8 °F /  31.0 °C 68 °F /  20.0 °C 30in /  1015.4hPa ESE 3.1mph /  5km/h 5mph /  8km/h 52% 0in /  0.00mm 585.00 W/m2 unknown
16:09 87.8 °F /  31.0 °C 68 °F /  20.0 °C 30in /  1015.4hPa ESE 1.9mph /  3km/h 5mph /  8km/h 53% 0in /  0.00mm 570.00 W/m2 unknown
16:14 87.8 °F /  31.0 °C 68 °F /  20.0 °C 30in /  1015.4hPa ENE 1.9mph /  3km/h 3.7mph /  6km/h 53% 0in /  0.00mm 529.00 W/m2 unknown
16:19 89.6 °F /  32.0 °C 69.8 °F /  21.0 °C 30in /  1015.4hPa NNE 1.9mph /  3km/h 3.7mph /  6km/h 53% 0in /  0.00mm 548.00 W/m2 unknown
16:24 89.6 °F /  32.0 °C 69.8 °F /  21.0 °C 30in /  1015.3hPa NNW 1.9mph /  3km/h 3.7mph /  6km/h 53% 0in /  0.00mm 531.00 W/m2 unknown
16:29 89.6 °F /  32.0 °C 68 °F /  20.0 °C 30in /  1015.3hPa North 1.2mph /  2km/h 3.7mph /  6km/h 52% 0in /  0.00mm 485.00 W/m2 unknown
16:34 89.6 °F /  32.0 °C 68 °F /  20.0 °C 30in /  1015.5hPa WNW 1.9mph /  3km/h 3.7mph /  6km/h 51% 0in /  0.00mm 445.00 W/m2 unknown
16:39 89.6 °F /  32.0 °C 68 °F /  20.0 °C 30in /  1015.4hPa West 1.9mph /  3km/h 3.7mph /  6km/h 51% 0in /  0.00mm 360.00 W/m2 unknown
16:44 89.6 °F /  32.0 °C 68 °F /  20.0 °C 30in /  1015.4hPa WSW 1.9mph /  3km/h 3.7mph /  6km/h 52% 0in /  0.00mm 281.00 W/m2 unknown
16:49 87.8 °F /  31.0 °C 68 °F /  20.0 °C 30in /  1015.3hPa WNW 2.5mph /  4km/h 5mph /  8km/h 50% 0in /  0.00mm 325.00 W/m2 unknown
16:54 89.6 °F /  32.0 °C 69.8 °F /  21.0 °C 30in /  1015.2hPa North 3.7mph /  6km/h 6.8mph /  11km/h 54% 0in /  0.00mm 397.00 W/m2 unknown
16:59 87.8 °F /  31.0 °C 69.8 °F /  21.0 °C 30in /  1015.1hPa NE 4.3mph /  7km/h 6.8mph /  11km/h 56% 0in /  0.00mm 406.00 W/m2 unknown
17:04 87.8 °F /  31.0 °C 69.8 °F /  21.0 °C 30in /  1015.0hPa NE 3.7mph /  6km/h 6.8mph /  11km/h 55% 0in /  0.00mm 406.00 W/m2 unknown
17:09 87.8 °F /  31.0 °C 69.8 °F /  21.0 °C 30in /  1014.8hPa ENE 3.7mph /  6km/h 5mph /  8km/h 56% 0in /  0.00mm 519.00 W/m2 unknown
17:14 87.8 °F /  31.0 °C 69.8 °F /  21.0 °C 30in /  1014.9hPa NE 3.1mph /  5km/h 5mph /  8km/h 54% 0in /  0.00mm 503.00 W/m2 unknown
17:19 89.6 °F /  32.0 °C 69.8 °F /  21.0 °C 30in /  1014.9hPa NNE 2.5mph /  4km/h 3.7mph /  6km/h 54% 0in /  0.00mm 475.00 W/m2 unknown
17:24 89.6 °F /  32.0 °C 69.8 °F /  21.0 °C 30in /  1014.8hPa NW 1.9mph /  3km/h 3.7mph /  6km/h 52% 0in /  0.00mm 462.00 W/m2 unknown
17:29 89.6 °F /  32.0 °C 68 °F /  20.0 °C 30in /  1014.8hPa West 1.9mph /  3km/h 3.7mph /  6km/h 51% 0in /  0.00mm 455.00 W/m2 unknown
17:34 89.6 °F /  32.0 °C 69.8 °F /  21.0 °C 30in /  1014.9hPa NW 2.5mph /  4km/h 3.7mph /  6km/h 52% 0in /  0.00mm 466.00 W/m2 unknown
17:39 89.6 °F /  32.0 °C 69.8 °F /  21.0 °C 30in /  1014.9hPa WNW 1.9mph /  3km/h 5mph /  8km/h 52% 0in /  0.00mm 519.00 W/m2 unknown
17:44 89.6 °F /  32.0 °C 68 °F /  20.0 °C 30in /  1015.0hPa WNW 3.7mph /  6km/h 5mph /  8km/h 49% 0in /  0.00mm 441.00 W/m2 unknown
17:49 89.6 °F /  32.0 °C 68 °F /  20.0 °C 30in /  1015.0hPa WNW 3.7mph /  6km/h 5mph /  8km/h 50% 0in /  0.00mm 200.00 W/m2 unknown
17:54 89.6 °F /  32.0 °C 68 °F /  20.0 °C 30in /  1015.1hPa WNW 3.7mph /  6km/h 5mph /  8km/h 50% 0in /  0.00mm 200.00 W/m2 unknown
17:59 89.6 °F /  32.0 °C 68 °F /  20.0 °C 30in /  1015.0hPa WNW 3.7mph /  6km/h 5mph /  8km/h 51% 0in /  0.00mm 102.00 W/m2 unknown
18:04 87.8 °F /  31.0 °C 68 °F /  20.0 °C 30in /  1015.0hPa West 3.1mph /  5km/h 5mph /  8km/h 53% 0in /  0.00mm 171.00 W/m2 unknown
18:09 87.8 °F /  31.0 °C 68 °F /  20.0 °C 30in /  1015.0hPa West 2.5mph /  4km/h 3.7mph /  6km/h 52% 0in /  0.00mm 325.00 W/m2 unknown
18:14 87.8 °F /  31.0 °C 68 °F /  20.0 °C 30in /  1014.9hPa WNW 2.5mph /  4km/h 3.7mph /  6km/h 52% 0in /  0.00mm 260.00 W/m2 unknown
18:19 87.8 °F /  31.0 °C 68 °F /  20.0 °C 30in /  1014.9hPa WNW 1.2mph /  2km/h 3.7mph /  6km/h 50% 0in /  0.00mm 299.00 W/m2 unknown
18:24 87.8 °F /  31.0 °C 69.8 °F /  21.0 °C 30in /  1014.8hPa WNW 1.2mph /  2km/h 3.7mph /  6km/h 53% 0in /  0.00mm 366.00 W/m2 unknown
18:29 87.8 °F /  31.0 °C 69.8 °F /  21.0 °C 30in /  1014.8hPa West 1.9mph /  3km/h 3.7mph /  6km/h 54% 0in /  0.00mm 336.00 W/m2 unknown
18:34 87.8 °F /  31.0 °C 69.8 °F /  21.0 °C 30in /  1014.7hPa West 2.5mph /  4km/h 5mph /  8km/h 53% 0in /  0.00mm 320.00 W/m2 unknown
18:39 87.8 °F /  31.0 °C 69.8 °F /  21.0 °C 30in /  1014.6hPa WSW 2.5mph /  4km/h 4.3mph /  7km/h 54% 0in /  0.00mm 292.00 W/m2 unknown
18:44 87.8 °F /  31.0 °C 69.8 °F /  21.0 °C 30in /  1014.6hPa SW 1.9mph /  3km/h 5mph /  8km/h 53% 0in /  0.00mm 279.00 W/m2 unknown
18:49 87.8 °F /  31.0 °C 69.8 °F /  21.0 °C 30in /  1014.7hPa WSW 2.5mph /  4km/h 3.7mph /  6km/h 53% 0in /  0.00mm 276.00 W/m2 unknown
18:54 87.8 °F /  31.0 °C 68 °F /  20.0 °C 30in /  1014.7hPa WSW 2.5mph /  4km/h 3.7mph /  6km/h 52% 0in /  0.00mm 276.00 W/m2 unknown
18:59 87.8 °F /  31.0 °C 68 °F /  20.0 °C 30in /  1014.6hPa SW 2.5mph /  4km/h 3.7mph /  6km/h 52% 0in /  0.00mm 137.00 W/m2 unknown
19:04 87.8 °F /  31.0 °C 68 °F /  20.0 °C 30in /  1014.6hPa WSW 1.9mph /  3km/h 3.7mph /  6km/h 52% 0in /  0.00mm 137.00 W/m2 unknown
19:09 87.8 °F /  31.0 °C 68 °F /  20.0 °C 30in /  1014.6hPa WSW 1.2mph /  2km/h 3.7mph /  6km/h 52% 0in /  0.00mm 113.00 W/m2 unknown
19:14 87.8 °F /  31.0 °C 69.8 °F /  21.0 °C 30in /  1014.6hPa West 1.9mph /  3km/h 3.7mph /  6km/h 55% 0in /  0.00mm 100.00 W/m2 unknown
19:19 87.8 °F /  31.0 °C 69.8 °F /  21.0 °C 30in /  1014.6hPa WSW 1.9mph /  3km/h 3.7mph /  6km/h 57% 0in /  0.00mm 155.00 W/m2 unknown
19:24 87.8 °F /  31.0 °C 69.8 °F /  21.0 °C 30in /  1014.7hPa ESE 1.9mph /  3km/h 3.7mph /  6km/h 57% 0in /  0.00mm 160.00 W/m2 unknown
19:29 87.8 °F /  31.0 °C 69.8 °F /  21.0 °C 30in /  1014.7hPa ESE 2.5mph /  4km/h 3.7mph /  6km/h 57% 0in /  0.00mm 176.00 W/m2 unknown
19:34 86 °F /  30.0 °C 71.6 °F /  22.0 °C 30in /  1014.8hPa ESE 2.5mph /  4km/h 5mph /  8km/h 60% 0in /  0.00mm 171.00 W/m2 unknown
19:39 86 °F /  30.0 °C 71.6 °F /  22.0 °C 30in /  1014.7hPa ESE 3.7mph /  6km/h 5mph /  8km/h 60% 0in /  0.00mm 171.00 W/m2 unknown
19:44 86 °F /  30.0 °C 69.8 °F /  21.0 °C 30in /  1014.7hPa East 3.7mph /  6km/h 5mph /  8km/h 59% 0in /  0.00mm 144.00 W/m2 unknown
19:49 86 °F /  30.0 °C 69.8 °F /  21.0 °C 30in /  1014.8hPa East 3.1mph /  5km/h 5mph /  8km/h 59% 0in /  0.00mm 116.00 W/m2 unknown
19:54 86 °F /  30.0 °C 69.8 °F /  21.0 °C 30in /  1014.8hPa East 3.1mph /  5km/h 5mph /  8km/h 60% 0in /  0.00mm 100.00 W/m2 unknown
19:59 86 °F /  30.0 °C 69.8 °F /  21.0 °C 30in /  1014.8hPa ENE 1.9mph /  3km/h 3.7mph /  6km/h 60% 0in /  0.00mm 77.00 W/m2 unknown
20:04 86 °F /  30.0 °C 69.8 °F /  21.0 °C 30in /  1014.9hPa East 1.9mph /  3km/h 3.7mph /  6km/h 60% 0in /  0.00mm 69.00 W/m2 unknown
20:09 86 °F /  30.0 °C 69.8 °F /  21.0 °C 30in /  1015.1hPa East 1.9mph /  3km/h 3.7mph /  6km/h 61% 0in /  0.00mm 65.00 W/m2 unknown
20:14 86 °F /  30.0 °C 69.8 °F /  21.0 °C 30in /  1015.2hPa East 1.9mph /  3km/h 3.1mph /  5km/h 60% 0in /  0.00mm 47.00 W/m2 unknown
20:19 86 °F /  30.0 °C 69.8 °F /  21.0 °C 30in /  1015.2hPa East 1.2mph /  2km/h 2.5mph /  4km/h 60% 0in /  0.00mm 44.00 W/m2 unknown
20:24 86 °F /  30.0 °C 69.8 °F /  21.0 °C 30in /  1015.3hPa East 1.2mph /  2km/h 2.5mph /  4km/h 59% 0in /  0.00mm 35.00 W/m2 unknown
20:29 86 °F /  30.0 °C 69.8 °F /  21.0 °C 30in /  1015.3hPa East 1.9mph /  3km/h 3.1mph /  5km/h 60% 0in /  0.00mm 14.00 W/m2 unknown
20:34 86 °F /  30.0 °C 69.8 °F /  21.0 °C 30in /  1015.5hPa ESE 5.6mph /  9km/h 10.6mph /  17km/h 62% 0in /  0.00mm 7.00 W/m2 unknown
20:39 84.2 °F /  29.0 °C 69.8 °F /  21.0 °C 30in /  1015.6hPa ESE 6.8mph /  11km/h 10.6mph /  17km/h 62% 0in /  0.00mm 5.00 W/m2 unknown
20:44 84.2 °F /  29.0 °C 68 °F /  20.0 °C 30in /  1015.6hPa ESE 6.2mph /  10km/h 9.9mph /  16km/h 60% 0in /  0.00mm 5.00 W/m2 unknown
20:49 84.2 °F /  29.0 °C 68 °F /  20.0 °C 30in /  1015.7hPa SE 4.3mph /  7km/h 8.1mph /  13km/h 59% 0in /  0.00mm 5.00 W/m2 unknown
20:54 82.4 °F /  28.0 °C 66.2 °F /  19.0 °C 30in /  1015.6hPa ESE 4.3mph /  7km/h 6.8mph /  11km/h 58% 0in /  0.00mm 5.00 W/m2 unknown
20:59 82.4 °F /  28.0 °C 66.2 °F /  19.0 °C 30in /  1015.5hPa ESE 5mph /  8km/h 8.1mph /  13km/h 59% 0in /  0.00mm 0.00 W/m2 unknown
21:04 82.4 °F /  28.0 °C 66.2 °F /  19.0 °C 30in /  1015.4hPa ESE 5.6mph /  9km/h 8.1mph /  13km/h 60% 0in /  0.00mm 0.00 W/m2 unknown
21:09 82.4 °F /  28.0 °C 66.2 °F /  19.0 °C 30in /  1015.6hPa East 5mph /  8km/h 8.1mph /  13km/h 61% 0in /  0.00mm 0.00 W/m2 unknown
21:14 82.4 °F /  28.0 °C 66.2 °F /  19.0 °C 30in /  1015.7hPa ESE 6.2mph /  10km/h 9.9mph /  16km/h 61% 0in /  0.00mm 0.00 W/m2 unknown
21:19 80.6 °F /  27.0 °C 66.2 °F /  19.0 °C 30in /  1015.7hPa ESE 7.5mph /  12km/h 9.9mph /  16km/h 61% 0in /  0.00mm 0.00 W/m2 unknown
21:24 80.6 °F /  27.0 °C 66.2 °F /  19.0 °C 30in /  1015.9hPa ESE 7.5mph /  12km/h 11.8mph /  19km/h 62% 0in /  0.00mm 0.00 W/m2 unknown
21:29 80.6 °F /  27.0 °C 66.2 °F /  19.0 °C 30in /  1015.9hPa East 6.8mph /  11km/h 14.9mph /  24km/h 62% 0in /  0.00mm 0.00 W/m2 unknown
21:34 80.6 °F /  27.0 °C 66.2 °F /  19.0 °C 30in /  1016.1hPa East 8.1mph /  13km/h 16.2mph /  26km/h 62% 0in /  0.00mm 0.00 W/m2 unknown
21:39 80.6 °F /  27.0 °C 66.2 °F /  19.0 °C 30in /  1016.1hPa East 8.1mph /  13km/h 16.2mph /  26km/h 62% 0in /  0.00mm 0.00 W/m2 unknown
21:44 80.6 °F /  27.0 °C 66.2 °F /  19.0 °C 30in /  1016.2hPa East 6.8mph /  11km/h 9.3mph /  15km/h 63% 0in /  0.00mm 0.00 W/m2 unknown
21:49 78.8 °F /  26.0 °C 66.2 °F /  19.0 °C 30in /  1016.4hPa ENE 5.6mph /  9km/h 9.3mph /  15km/h 63% 0in /  0.00mm 0.00 W/m2 unknown
21:54 78.8 °F /  26.0 °C 66.2 °F /  19.0 °C 30in /  1016.4hPa ENE 5.6mph /  9km/h 9.9mph /  16km/h 63% 0in /  0.00mm 0.00 W/m2 unknown
21:59 78.8 °F /  26.0 °C 66.2 °F /  19.0 °C 30in /  1016.5hPa East 6.2mph /  10km/h 10.6mph /  17km/h 63% 0in /  0.00mm 0.00 W/m2 unknown
22:04 78.8 °F /  26.0 °C 64.4 °F /  18.0 °C 30in /  1016.6hPa ENE 6.2mph /  10km/h 10.6mph /  17km/h 63% 0in /  0.00mm 0.00 W/m2 unknown
22:09 78.8 °F /  26.0 °C 64.4 °F /  18.0 °C 30in /  1016.7hPa ENE 5mph /  8km/h 8.1mph /  13km/h 62% 0in /  0.00mm 0.00 W/m2 unknown
22:14 78.8 °F /  26.0 °C 64.4 °F /  18.0 °C 30in /  1016.7hPa NE 5.6mph /  9km/h 8.1mph /  13km/h 62% 0in /  0.00mm 0.00 W/m2 unknown
22:19 77 °F /  25.0 °C 64.4 °F /  18.0 °C 30in /  1016.8hPa ENE 6.2mph /  10km/h 8.1mph /  13km/h 62% 0in /  0.00mm 0.00 W/m2 unknown
22:24 77 °F /  25.0 °C 62.6 °F /  17.0 °C 30in /  1016.7hPa ENE 6.2mph /  10km/h 9.9mph /  16km/h 61% 0in /  0.00mm 0.00 W/m2 unknown
22:29 77 °F /  25.0 °C 62.6 °F /  17.0 °C 30in /  1016.8hPa ENE 6.2mph /  10km/h 10.6mph /  17km/h 61% 0in /  0.00mm 0.00 W/m2 unknown
22:34 77 °F /  25.0 °C 62.6 °F /  17.0 °C 30in /  1016.8hPa ENE 6.2mph /  10km/h 9.9mph /  16km/h 61% 0in /  0.00mm 0.00 W/m2 unknown
22:39 77 °F /  25.0 °C 62.6 °F /  17.0 °C 30in /  1016.8hPa ENE 6.2mph /  10km/h 9.3mph /  15km/h 61% 0in /  0.00mm 0.00 W/m2 unknown
22:44 77 °F /  25.0 °C 62.6 °F /  17.0 °C 30in /  1016.8hPa ENE 6.2mph /  10km/h 8.1mph /  13km/h 62% 0in /  0.00mm 0.00 W/m2 unknown
22:49 77 °F /  25.0 °C 62.6 °F /  17.0 °C 30in /  1016.8hPa ENE 5mph /  8km/h 6.2mph /  10km/h 63% 0in /  0.00mm 0.00 W/m2 unknown
22:54 77 °F /  25.0 °C 62.6 °F /  17.0 °C 30in /  1016.9hPa ENE 3.1mph /  5km/h 5mph /  8km/h 63% 0in /  0.00mm 0.00 W/m2 unknown
22:59 75.2 °F /  24.0 °C 62.6 °F /  17.0 °C 30in /  1016.9hPa ENE 3.1mph /  5km/h 6.2mph /  10km/h 64% 0in /  0.00mm 0.00 W/m2 unknown
23:04 75.2 °F /  24.0 °C 62.6 °F /  17.0 °C 30in /  1016.9hPa ENE 4.3mph /  7km/h 6.2mph /  10km/h 64% 0in /  0.00mm 0.00 W/m2 unknown
23:09 75.2 °F /  24.0 °C 62.6 °F /  17.0 °C 30in /  1016.9hPa ENE 5mph /  8km/h 6.2mph /  10km/h 64% 0in /  0.00mm 0.00 W/m2 unknown
23:14 75.2 °F /  24.0 °C 62.6 °F /  17.0 °C 30in /  1016.8hPa East 3.1mph /  5km/h 6.2mph /  10km/h 64% 0in /  0.00mm 0.00 W/m2 unknown
23:19 75.2 °F /  24.0 °C 62.6 °F /  17.0 °C 30in /  1016.8hPa East 3.1mph /  5km/h 3.7mph /  6km/h 64% 0in /  0.00mm 0.00 W/m2 unknown
23:23 75.2 °F /  24.0 °C 62.6 °F /  17.0 °C 30in /  1016.8hPa East 2.5mph /  4km/h 3.7mph /  6km/h 65% 0in /  0.00mm 0.00 W/m2 unknown
23:29 75.2 °F /  24.0 °C 62.6 °F /  17.0 °C 30in /  1016.7hPa ESE 3.7mph /  6km/h 5mph /  8km/h 65% 0in /  0.00mm 0.00 W/m2 unknown
23:34 75.2 °F /  24.0 °C 62.6 °F /  17.0 °C 30in /  1016.8hPa ENE 3.1mph /  5km/h 5mph /  8km/h 65% 0in /  0.00mm 0.00 W/m2 unknown
23:39 75.2 °F /  24.0 °C 62.6 °F /  17.0 °C 30in /  1016.9hPa NE 3.1mph /  5km/h 5mph /  8km/h 65% 0in /  0.00mm 0.00 W/m2 unknown
23:44 75.2 °F /  24.0 °C 62.6 °F /  17.0 °C 30in /  1016.9hPa NNE 2.5mph /  4km/h 5mph /  8km/h 65% 0in /  0.00mm 0.00 W/m2 unknown
23:49 75.2 °F /  24.0 °C 62.6 °F /  17.0 °C 30in /  1017.0hPa NNE 3.1mph /  5km/h 5mph /  8km/h 65% 0in /  0.00mm 0.00 W/m2 unknown
23:54 75.2 °F /  24.0 °C 62.6 °F /  17.0 °C 30in /  1017.1hPa NNE 3.1mph /  5km/h 3.7mph /  6km/h 65% 0in /  0.00mm 0.00 W/m2 unknown
23:59 75.2 °F /  24.0 °C 62.6 °F /  17.0 °C 30in /  1017.1hPa NNE 3.1mph /  5km/h 5mph /  8km/h 65% 0in /  0.00mm 0.00 W/m2 unknown
Stazione Meteorologica MeteoMincio Rivalta s/M (MN)
Con i complimenti di Weather Underground - 4 mb



METEO PILLOLE
Maggior quantità di pioggia caduta in 12 ore
Foc-Foc (2290 m) - Isola di Réunion
Tra il 7 e l'8 gennaio 1966 caddero 1144mm di pioggia.
Share

Non seguire questo link o sarai bannato dal sito!